Location: Arthez
(43.0833°N, 0.2500°W)
Time: 03:48:59
(UTC+00:00)

Cosmos 220 Rocket - Pass Details

Date: 23 October 2021
Orbit: 575 x 615 km, 74.0° (Epoch: 27 November)

Event Time Altitude Azimuth Distance (km) Brightness Sun altitude
Rises 18:20:08 0° 183° (S) 2,868 7.6 -14.3°
Reaches altitude 10° 18:22:26 10° 178° (S) 1,966 6.6 -14.7°
Maximum altitude 18:26:38 46° 105° (ESE) 822 4.2 -15.5°
Enters shadow 18:30:23 13° 34° (NE) 1,788 6.1 -16.1°
